Regional Weather Roundup
Issued by NWS

Home | Current Version | Previous Version | Graphics & Text | Print | Product List | Glossary On
Versions: 1 2 3 4 5 6 7 8 9 10 11 12 13 14 15 16 17 18 19 20 21 22 23 24 25 26 27 28 29 30 31 32 33 34 35 36 37 38 39 40 41 42 43 44 45 46 47 48 49 50
000
ASUS43 KDTX 041810
RWRMI
MICHIGAN HOURLY REGIONAL WEATHER ROUNDUP
NATIONAL WEATHER SERVICE DETROIT/PONTIAC MI
200 PM EDT TUE AUG 04 2015

NOTE: "FAIR" INDICATES FEW OR NO CLOUDS BELOW 12,000 FEET WITH NO
SIGNIFICANT WEATHER AND/OR OBSTRUCTION TO VISIBILITY.

MIZ047>049-052>055-059>063-066>070-074>076-081>083-041900-
SOUTHEAST LOWER MICHIGAN

CITY           SKY/WX    TMP DP  RH WIND       PRES   REMARKS
ADRIAN         MOSUNNY   78  56  46 W13       29.95F
6HR MIN TEMP:  59; 6HR MAX TEMP:  78;

ALMA           CLOUDY    73  57  56 W14G24    29.93R
ANN ARBOR      MOSUNNY   80  55  42 W15       29.93F
BAD AXE        PTSUNNY   73  57  58 W13G21    29.90S
6HR MIN TEMP:  59; 6HR MAX TEMP:  74;

DETROIT CITY   MOSUNNY   80  52  37 W15G21    29.91F
6HR MIN TEMP:  66; 6HR MAX TEMP:  80;

DETROIT        PTSUNNY   77  53  43 W14       29.93S
6HR MIN TEMP:  62; 6HR MAX TEMP:  82;

FLINT          CLOUDY    76  57  51 W14       29.92S
6HR MIN TEMP:  62; 6HR MAX TEMP:  79;

GROSSE ILE     PTSUNNY   81  54  39 W15G21    29.91S
HILLSDALE      MOSUNNY   78  53  42 W10G18    29.97S
6HR MIN TEMP:  64; 6HR MAX TEMP:  78;

HOWELL         CLOUDY    75  52  44 W14       29.94S
6HR MIN TEMP:  62; 6HR MAX TEMP:  78;


CITY           SKY/WX    TMP DP  RH WIND       PRES   REMARKS
JACKSON        MOSUNNY   77  56  48 W12G17    29.95S
6HR MIN TEMP:  60; 6HR MAX TEMP:  77;

LAMBERTVILLE   PTSUNNY   80  56  43 W10G17    29.95S
6HR MIN TEMP:  65; 6HR MAX TEMP:  81;

LANSING        PTSUNNY   76  56  49 W13       29.94F
6HR MIN TEMP:  63; 6HR MAX TEMP:  78;

LAPEER         NOT AVBL
MASON          CLOUDY    74  55  50 NW9       29.94S
MONROE         MOSUNNY   80  57  45 W16       29.92F
6HR MIN TEMP:  62; 6HR MAX TEMP:  81;

MT. CLEMENS    MOSUNNY   78  54  44 W13       29.89S
6HR MIN TEMP:  66; 6HR MAX TEMP:  79;

PONTIAC        PTSUNNY   75  55  49 W13       29.93R
6HR MIN TEMP:  64; 6HR MAX TEMP:  77;

PORT HURON     PTSUNNY   77  57  50 W8        29.90S
TRI CITIES     PTSUNNY   77  58  51 W15       29.90F
6HR MIN TEMP:  62; 6HR MAX TEMP:  78;

YPSILANTI        N/A     83  55  38 W15       29.93S
6HR MIN TEMP:  65; 6HR MAX TEMP:  83;

$$
MIZ043>046-050>051-056>058-064>065-071>073-077>080-041900-
SOUTHWEST LOWER MICHIGAN

CITY           SKY/WX    TMP DP  RH WIND       PRES   REMARKS
BATTLE CREEK     N/A    N/A N/A N/A MISG      29.97S
BENTON HARBOR  SUNNY     77  57  50 W13       29.97F
6HR MIN TEMP:  61; 6HR MAX TEMP:  77;

BIG RAPIDS     CLOUDY    74  57  55 W16       29.91F
6HR MIN TEMP:  59; 6HR MAX TEMP:  74;

COLDWATER      PTSUNNY   76  52  42 W9        29.96F
6HR MIN TEMP:  60; 6HR MAX TEMP:  77;

HOLLAND        SUNNY     78  57  48 W12G20    29.96F
6HR MIN TEMP:  64; 6HR MAX TEMP:  78;

GRAND RAPIDS   MOSUNNY   77  53  43 W21G26    29.94F
6HR MIN TEMP:  64; 6HR MAX TEMP:  79;

KALAMAZOO      MOSUNNY   80  53  39 W12G23    29.96S
6HR MIN TEMP:  61; 6HR MAX TEMP:  80;

MUSKEGON       PTSUNNY   76  57  51 W12G20    29.94F
6HR MIN TEMP:  69; 6HR MAX TEMP:  77;

$$
MIZ016>042-041900-
NORTHERN LOWER MICHIGAN

CITY           SKY/WX    TMP DP  RH WIND       PRES   REMARKS
ALPENA         MOSUNNY   72  56  57 NW17      29.88S
6HR MIN TEMP:  57; 6HR MAX TEMP:  74; 6HR PCP:  0.05;

BEAVER ISLAND  CLOUDY    66  53  62 NW7       29.93R
6HR MIN TEMP:  60; 6HR MAX TEMP:  67;

BELLAIRE       CLOUDY    69  53  56 W5        29.92S
6HR MIN TEMP:  62; 6HR MAX TEMP:  70;

CADILLAC       MOSUNNY   74  53  47 W16G22    29.92S
CHARLEVOIX     MOSUNNY   67  53  61 NW10      29.96R
FRANKFORT      PTCLDY    72  60  65 W9        29.93S
GAYLORD        PTSUNNY   68  53  58 W10G17    29.91S
6HR MIN TEMP:  59; 6HR MAX TEMP:  68; 6HR PCP:  0.06;

GRAYLING       PTSUNNY   71  56  59 W14       29.91F
6HR MIN TEMP:  57; 6HR MAX TEMP:  71;

HARBOR SPRINGS MOSUNNY   69  51  53 NW9G17    29.91S
HOUGHTON LAKE  PTSUNNY   70  58  65 W10       29.91F
6HR MIN TEMP:  62; 6HR MAX TEMP:  72; 6HR PCP: TRACE;

MANISTEE       SUNNY     68  55  64 W10       29.94S
OSCODA         CLOUDY    67  59  74 NW5       29.89R
PELLSTON       MOSUNNY   68  52  56 W16       29.91S
6HR MIN TEMP:  60; 6HR MAX TEMP:  69;

TRAVERSE CITY  PTSUNNY   70  56  61 N9        29.90S
6HR MIN TEMP:  63; 6HR MAX TEMP:  71;

$$
MIZ007>008-015-041900-
EASTERN UPPER MICHIGAN

CITY           SKY/WX    TMP DP  RH WIND       PRES   REMARKS
KINROSS        CLOUDY    64  52  63 NW15      29.89S
6HR MIN TEMP:  55; 6HR MAX TEMP:  64;

MACKINAC ISLAN CLOUDY    66  50  55 NW9G17    29.89F
6HR MIN TEMP:  59; 6HR MAX TEMP:  66; 6HR PCP:  0.03;

NEWBERRY       CLOUDY    66  48  51 NW14G22   29.91S
6HR MIN TEMP:  57; 6HR MAX TEMP:  67;

S. S. MARIE    CLOUDY    64  51  62 W13       29.89S
6HR MIN TEMP:  60; 6HR MAX TEMP:  66;

$$
MIZ004>006-011>014-085-041900-
CENTRAL UPPER MICHIGAN

CITY           SKY/WX    TMP DP  RH WIND       PRES   REMARKS
MANISTIQUE     CLOUDY    66  52  59 N9        29.92S
ESCANABA       CLOUDY    66  61  82 S10       29.91F
6HR MIN TEMP:  55; 6HR MAX TEMP:  66;

MENOMINEE      MOSUNNY   72  52  49 NW8       29.91S
6HR MIN TEMP:  59; 6HR MAX TEMP:  72;

SAWYER-GWINN   PTSUNNY   61  52  72 NE8       29.94S
$$
MIZ001>003-009>011-084-041900-
WESTERN UPPER MICHIGAN

CITY           SKY/WX    TMP DP  RH WIND       PRES   REMARKS
IRON MOUNTAIN  PTSUNNY   69  55  60 NW9       29.93S
6HR MIN TEMP:  57; 6HR MAX TEMP:  71; 6HR PCP: TRACE;

HOUGHTON       PTSUNNY   64  49  57 NW17G24   29.95S
6HR MIN TEMP:  57; 6HR MAX TEMP:  64; 6HR PCP: TRACE;

COPPER HARBOR    N/A     62  52  69 N12       29.94S
6HR MIN TEMP:  58; 6HR MAX TEMP:  63;

IRONWOOD       PTSUNNY   64  54  68 NW7       29.97S
6HR MIN TEMP:  55; 6HR MAX TEMP:  64;

$$

ABBREVIATIONS USED IN REMARKS
   TC - TEMPERATURE IN CELSIUS
  WCI - WIND CHILL INDEX
   HX - HEAT INDEX
  VSB - VISIBILITY



USA.gov is the U.S. government's official web portal to all federal, state and local government web resources and services.